Tracking 20621 objects as of 30-Mar-2020
HD Live streaming from Space Station
objects crossing your sky now

SL-14 R/B

Track SL-14 R/B now!
10-day predictions


NORAD ID: 16194
Int'l Code: 1985-100B
Perigee: 1,230.8 km
Apogee: 1,255.0 km
Inclination: 82.6 °
Period: 110.2 minutes
Semi major axis: 7613 km
RCS: 4.9928 m2 (large)
Launch date: October 24, 1985
Source: Commonwealth of Independent States (former USSR) (CIS)
Launch site: PLESETSK MISSILE AND SPACE COMPLEX (PKMTR)

Note: This is a ROCKET BODY
aabbcc
Your satellite tracking list
Your tracking list is empty




NASA's NSSDC Master Catalog

Two Line Element Set (TLE):
1 16194U 85100B   20090.16865493 -.00000136 +00000-0 -44688-3 0  9993
2 16194 082.5945 027.3921 0015879 337.3498 146.9697 13.06748569641683
Source of the keplerian elements: AFSPC